Weather History for KRSN - December, 2013

Change the Weather History Date:

Sunday, December 29, 2013

  Actual Average Record
Temperature  
Mean Temperature 46 °F -  
Max Temperature 61 °F 55 °F 75 °F (1984)
Min Temperature 32 °F 35 °F 16 °F (1983)
Degree Days  
Heating Degree Days 18    
Moisture  
Dew Point 36 °F    
Average Humidity 72    
Maximum Humidity 100    
Minimum Humidity 31    
Precipitation  
Precipitation 0.00 in - - ()
Sea Level Pressure  
Sea Level Pressure 30.09 in    
Wind  
Wind Speed 1 mph (SW)    
Max Wind Speed 7 mph    
Max Gust Speed -    
Visibility 9 miles    
Events      
Averages and records for this station are not official NWS values.
T = Trace of Precipitation, MM = Missing Value Source: NWS Daily Summary

Daily Weather History Graph

Daily Weather History Graph

Search for Another Location

Airport or City:

Trip Planner

Search our weather history database for the weather conditions in past years. The results will help you decide how hot, cold, wet, or windy it might be!

Date:

Astronomy

Dec. 29, 2013 Rise Set
Actual Time 7:11 AM CST 5:13 PM CST
Civil Twilight 6:44 AM CST 5:40 PM CST
Nautical Twilight 6:13 AM CST 6:11 PM CST
Astronomical Twilight 5:43 AM CST 6:41 PM CST
Moon 4:00 AM CST (12/29) 2:48 PM CST (12/29)
Length of Visible Light 10h 56m
Length of Day
10h 02m
Waning Crescent, 11% of the Moon is Illuminated
Dec 29
Waning Crescent
Jan 1
New
Jan 7
First Quarter
Jan 15
Full
Jan 23
Last Quarter

Hourly Weather History & Observations

Time (CST) Temp. Dew Point Humidity Pressure Visibility Wind Dir Wind Speed Gust Speed Precip Events Conditions
12:15 AM 36.9 °F 36.1 °F 97% 30.06 in 10.0 mi Calm Calm - N/A   Clear
12:35 AM 36.7 °F 35.8 °F 97% 30.06 in 7.0 mi Calm Calm - N/A   Clear
12:55 AM 36.5 °F 35.6 °F 97% 30.05 in 10.0 mi Calm Calm - N/A   Clear
1:15 AM 35.6 °F 35.4 °F 99% 30.05 in 7.0 mi Calm Calm - N/A   Clear
1:35 AM 37.0 °F 37.0 °F 100% 30.05 in 10.0 mi Calm Calm - N/A   Clear
1:55 AM 36.7 °F 36.0 °F 97% 30.04 in 7.0 mi Calm Calm - N/A   Scattered Clouds
2:15 AM 37.0 °F 35.8 °F 95% 30.04 in 10.0 mi Calm Calm - N/A   Scattered Clouds
2:35 AM 36.9 °F 36.3 °F 98% 30.06 in 10.0 mi Calm Calm - N/A   Clear
2:55 AM 37.4 °F 37.0 °F 99% 30.05 in 10.0 mi Calm Calm - N/A   Clear
3:15 AM 36.0 °F 35.4 °F 98% 30.06 in 5.0 mi Calm Calm - N/A   Clear
3:35 AM 36.1 °F 35.8 °F 99% 30.04 in 10.0 mi Calm Calm - N/A   Clear
3:55 AM 34.9 °F 34.9 °F 100% 30.04 in 7.0 mi Calm Calm - N/A   Clear
4:15 AM 34.0 °F 34.0 °F 100% 30.04 in 5.0 mi Calm Calm - N/A   Clear
4:35 AM 34.7 °F 34.7 °F 100% 30.04 in 10.0 mi Calm Calm - N/A   Clear
4:55 AM 33.4 °F 33.4 °F 100% 30.04 in 7.0 mi Calm Calm - N/A   Clear
5:15 AM 33.1 °F 33.1 °F 100% 30.05 in 7.0 mi Calm Calm - N/A   Clear
5:35 AM 33.4 °F 33.4 °F 100% 30.05 in 10.0 mi Calm Calm - N/A   Clear
5:55 AM 34.3 °F 34.3 °F 100% 30.05 in 10.0 mi Calm Calm - N/A   Clear
6:15 AM 32.4 °F 32.0 °F 99% 30.05 in 7.0 mi Calm Calm - N/A   Clear
6:35 AM 32.0 °F 32.0 °F 100% 30.07 in 7.0 mi Calm Calm - N/A   Clear
6:55 AM 32.0 °F 32.0 °F 100% 30.08 in 7.0 mi Calm Calm - N/A   Clear
7:15 AM 32.0 °F 32.0 °F 100% 30.09 in 7.0 mi Calm Calm - N/A   Clear
7:35 AM 32.0 °F 32.0 °F 100% 30.09 in 7.0 mi Calm Calm - N/A   Scattered Clouds
7:55 AM 34.0 °F 34.0 °F 100% 30.10 in 10.0 mi Calm Calm - N/A   Mostly Cloudy
8:15 AM 35.8 °F 35.6 °F 99% 30.11 in 10.0 mi Calm Calm - N/A   Scattered Clouds
8:35 AM 40.1 °F 38.7 °F 95% 30.11 in 10.0 mi Calm Calm - N/A   Scattered Clouds
8:55 AM 44.4 °F 40.1 °F 85% 30.11 in 10.0 mi Calm Calm - N/A   Scattered Clouds
9:15 AM 47.5 °F 40.1 °F 76% 30.12 in 10.0 mi Calm Calm - N/A   Clear
9:35 AM 49.1 °F 38.3 °F 66% 30.13 in 10.0 mi SSW 4.6 mph - N/A   Mostly Cloudy
9:55 AM 50.0 °F 37.2 °F 62% 30.14 in 10.0 mi SW 3.5 mph - N/A   Overcast
10:15 AM 50.4 °F 36.5 °F 59% 30.14 in 10.0 mi Calm Calm - N/A   Overcast
10:35 AM 53.2 °F 35.6 °F 51% 30.14 in 10.0 mi Calm Calm - N/A   Overcast
10:55 AM 53.6 °F 34.3 °F 48% 30.13 in 10.0 mi Calm Calm - N/A   Mostly Cloudy
11:15 AM 54.9 °F 34.5 °F 46% 30.13 in 10.0 mi Calm Calm - N/A   Mostly Cloudy
11:35 AM 55.9 °F 34.9 °F 45% 30.12 in 10.0 mi Calm Calm - N/A   Overcast
11:55 AM 59.0 °F 29.5 °F 33% 30.12 in 10.0 mi Calm Calm - N/A   Mostly Cloudy
12:15 PM 59.5 °F 28.9 °F 31% 30.10 in 10.0 mi West 4.6 mph - N/A   Scattered Clouds
12:35 PM 59.7 °F 30.7 °F 33% 30.10 in 10.0 mi WNW 5.8 mph - N/A   Mostly Cloudy
12:55 PM 59.2 °F 31.3 °F 35% 30.09 in 10.0 mi West 4.6 mph - N/A   Overcast
1:15 PM 60.1 °F 31.1 °F 33% 30.08 in 10.0 mi Calm Calm - N/A   Scattered Clouds
1:35 PM 61.0 °F 33.1 °F 35% 30.08 in 10.0 mi Calm Calm - N/A   Scattered Clouds
1:55 PM 61.5 °F 30.6 °F 31% 30.07 in 10.0 mi WSW 3.5 mph - N/A   Mostly Cloudy
2:15 PM 61.5 °F 31.3 °F 32% 30.07 in 10.0 mi West 3.5 mph - N/A   Scattered Clouds
2:35 PM 61.5 °F 31.8 °F 33% 30.06 in 10.0 mi Calm Calm - N/A   Clear
2:55 PM 61.9 °F 32.0 °F 33% 30.07 in 10.0 mi Calm Calm - N/A   Clear
3:15 PM 61.2 °F 34.0 °F 36% 30.07 in 10.0 mi SW 3.5 mph - N/A   Clear
3:35 PM 61.5 °F 34.3 °F 36% 30.07 in 10.0 mi SSW 4.6 mph - N/A   Clear
3:55 PM 60.6 °F 36.7 °F 41% 30.06 in 10.0 mi SSW 5.8 mph - N/A   Clear
4:15 PM 58.3 °F 38.5 °F 48% 30.07 in 10.0 mi SSW 6.9 mph - N/A   Clear
4:35 PM 56.8 °F 39.0 °F 51% 30.07 in 10.0 mi SSW 5.8 mph - N/A   Clear
4:55 PM 55.0 °F 39.6 °F 56% 30.07 in 10.0 mi SSW 5.8 mph - N/A   Clear
5:15 PM 53.6 °F 40.1 °F 60% 30.08 in 10.0 mi SSW 3.5 mph - N/A   Clear
5:35 PM 51.6 °F 41.5 °F 68% 30.08 in 10.0 mi Calm Calm - N/A   Clear
5:55 PM 50.0 °F 41.9 °F 74% 30.09 in 10.0 mi Calm Calm - N/A   Clear
6:15 PM 48.7 °F 42.1 °F 78% 30.10 in 10.0 mi Calm Calm - N/A   Clear
6:35 PM 47.7 °F 41.9 °F 80% 30.10 in 10.0 mi Calm Calm - N/A   Clear
6:55 PM 46.4 °F 41.7 °F 84% 30.12 in 10.0 mi Calm Calm - N/A   Clear
7:15 PM 46.8 °F 41.4 °F 81% 30.12 in 10.0 mi Calm Calm - N/A   Scattered Clouds
7:35 PM 50.9 °F 39.6 °F 65% 30.12 in 10.0 mi Calm Calm - N/A   Overcast
7:55 PM 51.3 °F 39.9 °F 65% 30.13 in 10.0 mi Calm Calm - N/A   Overcast
8:15 PM 52.3 °F 39.6 °F 62% 30.13 in 10.0 mi Calm Calm - N/A   Overcast
8:35 PM 52.3 °F 39.6 °F 62% 30.14 in 10.0 mi Calm Calm - N/A   Overcast
8:55 PM 51.8 °F 40.1 °F 64% 30.14 in 10.0 mi Calm Calm - N/A   Overcast
9:15 PM 49.1 °F 42.6 °F 78% 30.15 in 10.0 mi Calm Calm - N/A   Overcast
9:35 PM 51.8 °F 39.7 °F 63% 30.15 in 10.0 mi Calm Calm - N/A   Overcast
9:55 PM 50.0 °F 40.6 °F 70% 30.16 in 10.0 mi Calm Calm - N/A   Overcast
10:15 PM 50.9 °F 40.8 °F 68% 30.17 in 10.0 mi Calm Calm - N/A   Overcast
10:35 PM 52.0 °F 39.7 °F 63% 30.16 in 10.0 mi Calm Calm - N/A   Overcast
10:55 PM 51.6 °F 39.7 °F 64% 30.17 in 10.0 mi Calm Calm - N/A   Overcast
11:15 PM 51.3 °F 40.3 °F 66% 30.18 in 10.0 mi Calm Calm - N/A   Overcast
11:35 PM 52.0 °F 39.9 °F 63% 30.17 in 10.0 mi Calm Calm - N/A   Overcast
11:55 PM 49.8 °F 42.6 °F 76% 30.18 in 10.0 mi NNW 3.5 mph - N/A   Overcast